TimeEDT,TemperatureF,Dew PointF,Humidity,Sea Level PressureIn,VisibilityMPH,Wind Direction,Wind SpeedMPH,Gust SpeedMPH,PrecipitationIn,Events,Conditions,WindDirDegrees,DateUTC
12:52 AM,66.9,66.9,100,29.77,10.0,South,4.6,-,N/A,,Overcast,180,2013-06-27 04:52:00
1:52 AM,66.9,66.9,100,29.78,8.0,South,5.8,-,N/A,,Overcast,190,2013-06-27 05:52:00
2:52 AM,66.9,66.9,100,29.77,10.0,SSW,8.1,-,N/A,,Overcast,200,2013-06-27 06:52:00
3:52 AM,68.0,66.9,96,29.75,10.0,SSW,6.9,-,N/A,,Overcast,210,2013-06-27 07:52:00
4:23 AM,68.0,68.0,100,29.78,1.5,SW,6.9,-,N/A,,Overcast,220,2013-06-27 08:23:00
4:52 AM,68.0,68.0,100,29.76,0.8,SSW,5.8,-,N/A,,Overcast,210,2013-06-27 08:52:00
5:52 AM,69.1,68.0,96,29.76,0.8,SW,5.8,-,0.00,,Light Drizzle,230,2013-06-27 09:52:00
6:52 AM,69.1,69.1,100,29.77,0.8,West,10.4,-,0.00,,Overcast,260,2013-06-27 10:52:00
7:17 AM,69.8,69.8,100,29.80,0.2,West,8.1,-,N/A,,Overcast,270,2013-06-27 11:17:00
7:52 AM,69.1,69.1,100,29.78,0.2,West,6.9,-,0.00,,Drizzle,260,2013-06-27 11:52:00
8:19 AM,69.8,69.8,100,29.81,0.5,West,4.6,-,0.00,,Overcast,270,2013-06-27 12:19:00
8:34 AM,69.8,69.8,100,29.80,0.8,SW,6.9,-,0.00,,Overcast,230,2013-06-27 12:34:00
8:43 AM,71.6,69.8,94,29.80,1.5,WSW,5.8,-,0.00,,Overcast,250,2013-06-27 12:43:00
8:52 AM,71.1,70.0,96,29.78,1.5,WSW,6.9,-,0.00,,Overcast,250,2013-06-27 12:52:00
9:52 AM,72.0,70.0,93,29.78,1.5,West,9.2,-,N/A,,Overcast,270,2013-06-27 13:52:00
9:59 AM,71.6,71.6,100,29.80,2.5,West,8.1,-,N/A,,Overcast,270,2013-06-27 13:59:00
10:52 AM,72.0,71.1,97,29.78,2.5,West,5.8,-,N/A,,Overcast,270,2013-06-27 14:52:00
11:21 AM,73.4,71.6,94,29.81,2.5,West,9.2,-,N/A,,Overcast,270,2013-06-27 15:21:00
11:35 AM,73.4,71.6,94,29.81,4.0,West,10.4,-,0.00,Rain,Light Rain,270,2013-06-27 15:35:00
11:48 AM,75.2,71.6,89,29.81,5.0,West,8.1,-,0.00,,Overcast,280,2013-06-27 15:48:00
11:52 AM,75.9,72.0,87,29.78,5.0,West,9.2,-,0.00,,Overcast,280,2013-06-27 15:52:00
12:07 PM,78.8,73.4,83,29.80,6.0,West,8.1,-,N/A,,Haze,260,2013-06-27 16:07:00
12:52 PM,77.0,71.1,82,29.78,7.0,West,8.1,-,N/A,,Mostly Cloudy,280,2013-06-27 16:52:00
1:06 PM,80.6,71.6,74,29.80,8.0,WNW,12.7,18.4,N/A,,Mostly Cloudy,300,2013-06-27 17:06:00
1:52 PM,81.0,70.0,69,29.77,10.0,WNW,9.2,-,N/A,,Mostly Cloudy,300,2013-06-27 17:52:00
2:52 PM,82.9,68.0,60,29.78,10.0,NW,11.5,-,N/A,,Mostly Cloudy,310,2013-06-27 18:52:00
3:52 PM,84.9,69.1,59,29.76,10.0,WNW,12.7,21.9,N/A,,Mostly Cloudy,290,2013-06-27 19:52:00
4:52 PM,84.9,70.0,61,29.75,10.0,West,15.0,-,N/A,,Mostly Cloudy,270,2013-06-27 20:52:00
5:52 PM,84.9,70.0,61,29.73,10.0,West,12.7,-,N/A,,Scattered Clouds,280,2013-06-27 21:52:00
6:52 PM,82.9,70.0,65,29.73,10.0,West,10.4,-,N/A,,Mostly Cloudy,280,2013-06-27 22:52:00
7:52 PM,82.9,69.1,63,29.74,10.0,WNW,8.1,-,N/A,,Mostly Cloudy,300,2013-06-27 23:52:00
8:52 PM,79.0,71.1,77,29.74,10.0,WSW,4.6,-,N/A,,Overcast,250,2013-06-28 00:52:00
9:52 PM,77.0,71.1,82,29.73,10.0,WSW,5.8,-,0.00,,Mostly Cloudy,250,2013-06-28 01:52:00
10:52 PM,75.0,68.0,79,29.72,10.0,WSW,4.6,-,N/A,,Scattered Clouds,240,2013-06-28 02:52:00
11:52 PM,73.9,66.9,79,29.70,10.0,SSW,4.6,-,N/A,,Partly Cloudy,210,2013-06-28 03:52:00